RH
44 44 45 46 47 47 47 48 47 47 47 46 45 45 45 45 46 46 47 47 48 49 49 50 51 51 52 53 54 55 56 57 58 58 58 58 57 57 57 57 58 58 59 60 60 61 62 63 64 64 66 67 68 69 70 71 72 74 75 76 77 78 79 79 80 81 81 82 83 83 84 85 84 84 84 85 86 86 85 85 85 86 86 87 87 87
46 47 47 48 49 49 49 49 48 48 47 46 46 46 46 47 47 48 48 49 50 51 52 52 53 54 54 55 55 55 55 55 55 55 54 54 54 54 55 55 56 57 58 59 60 61 62 63 64 65 66 67 68 69 70 71 73 74 76 77 78 79 80 80 81 82 83 84 84 85 86 85 85 86 86 86 86 86 85 84 84 85 85 86 87 87
49 49 49 50 51 51 51 50 49 48 48 47 47 48 48 49 49 50 51 52 53 55 56 56 56 56 55 54 54 53 52 51 51 51 51 51 51 52 54 55 56 57 58 59 60 62 63 64 64 65 66 67 68 69 70 72 73 74 76 77 78 79 80 81 83 84 84 85 86 86 86 86 86 86 87 85 85 86 85 85 86 87 86 87 88 88
51 51 52 53 53 52 51 50 49 49 49 49 49 50 50 51 52 53 55 57 60 60 60 58 56 55 53 51 50 48 48 47 47 48 49 50 51 52 53 55 56 57 58 60 61 62 63 64 65 66 66 67 68 69 70 71 72 74 75 76 78 79 80 82 83 84 84 86 87 87 88 88 88 88 88 87 88 88 87 88 90 91 90 92 92 92
54 54 55 54 53 52 51 50 50 50 50 50 51 52 53 54 57 60 62 64 64 62 59 55 52 50 48 47 45 44 44 45 45 46 48 49 50 52 53 55 56 57 59 60 61 62 63 64 65 65 66 67 68 68 69 70 71 73 74 75 76 78 79 81 82 84 85 86 87 88 89 90 91 90 89 91 92 92 90 92 93 93 92 92 93 93
56 56 55 54 53 52 51 51 51 51 51 52 53 55 58 61 65 66 66 64 60 56 52 50 48 46 44 43 43 42 43 43 44 46 47 49 51 52 54 55 57 58 59 60 61 62 63 64 65 65 66 67 67 68 69 69 70 71 72 73 75 76 77 79 80 82 83 85 85 86 87 89 89 89 90 91 91 91 91 91 90 90 88 88 88 88
57 56 54 53 52 52 52 52 52 53 54 56 59 63 68 69 68 65 61 56 52 49 47 45 44 43 42 41 41 41 42 43 44 46 48 50 51 53 54 56 57 58 60 60 61 62 63 64 65 65 66 66 66 67 67 68 68 69 70 71 73 74 75 76 77 78 80 81 82 83 84 85 85 86 87 87 87 87 88 87 87 86 85 85 85 85
56 54 53 53 53 53 53 53 54 56 59 64 68 72 73 68 62 56 51 48 46 45 44 43 43 42 42 41 42 42 43 44 46 47 49 51 52 54 55 57 58 59 60 61 62 63 63 63 64 64 64 64 64 65 66 66 67 68 69 70 71 72 73 74 75 76 77 78 79 80 82 82 83 84 85 85 86 86 87 86 86 85 85 85 86 86
56 55 55 55 55 55 54 56 59 64 70 76 77 74 67 58 52 47 45 44 44 44 43 43 43 43 42 43 43 44 46 47 49 50 52 53 54 56 57 58 59 60 61 61 61 61 61 61 61 61 61 62 63 64 65 66 66 67 68 68 69 70 71 72 73 74 76 77 78 79 81 83 84 85 85 86 87 87 87 87 86 86 86 86 86 86
57 57 57 56 56 58 61 66 72 77 81 78 72 64 55 49 46 44 44 44 44 44 44 43 43 43 44 45 46 47 49 50 52 53 55 56 57 58 58 58 59 59 58 58 58 58 58 58 59 60 60 61 62 63 64 65 66 67 68 68 68 69 70 71 73 74 76 77 78 80 81 83 84 85 86 86 86 87 87 87 86 86 86 85 85 85
59 60 60 59 62 67 75 82 85 83 75 65 56 50 45 44 44 45 45 45 45 44 44 44 45 45 46 47 49 50 51 53 54 55 56 56 57 57 57 56 56 55 55 55 55 56 57 58 58 59 60 61 62 63 64 65 66 67 68 68 68 69 70 71 72 74 75 76 77 79 80 81 83 84 85 85 85 85 86 86 86 85 84 84 84 84
63 64 66 69 74 79 83 80 73 64 55 50 46 45 44 44 45 46 46 46 46 45 45 46 46 47 49 50 52 53 54 55 56 56 56 56 55 55 54 53 53 53 54 54 55 56 57 58 59 60 61 62 63 64 65 66 66 67 67 67 67 68 68 69 71 72 74 75 77 78 79 81 83 85 85 86 87 87 87 87 87 86 86 85 86 86
68 70 75 81 83 81 74 64 56 50 47 46 46 46 46 45 46 46 46 46 46 46 46 48 49 50 51 53 54 56 57 57 57 57 56 55 54 53 53 53 54 54 55 55 56 56 57 58 60 61 62 63 64 64 65 65 65 65 65 65 65 66 67 69 70 72 74 76 78 80 83 83 84 84 85 86 87 87 85 86 87 88 88 87 87 88
73 76 81 81 76 69 60 54 51 49 48 48 47 47 47 46 46 46 47 47 47 48 49 50 52 53 54 55 56 57 58 58 58 57 55 55 54 54 54 55 56 56 56 57 57 58 59 60 61 62 63 63 63 63 62 62 62 62 63 64 65 66 68 69 72 74 77 79 81 82 83 83 83 84 85 85 85 84 84 85 86 87 88 87 87 88
80 81 78 72 66 60 54 52 51 50 49 49 48 47 47 47 47 47 47 48 49 51 53 55 56 57 57 57 57 57 57 57 56 56 55 55 55 55 56 57 58 58 59 59 60 60 61 62 62 62 61 61 60 60 60 61 62 63 64 65 66 67 69 71 73 75 77 78 80 81 82 83 84 84 85 85 85 86 85 85 85 86 86 86 86 87
81 77 72 67 62 58 54 53 52 51 50 49 48 48 48 48 48 49 50 52 54 56 59 60 61 60 58 57 57 57 56 56 56 56 57 56 56 57 57 59 60 61 61 62 62 62 61 61 61 60 60 60 60 60 61 62 63 64 65 67 68 69 70 72 73 75 76 78 79 81 83 84 84 85 86 86 86 86 85 86 85 85 85 86 85 85
77 73 68 65 61 58 55 54 52 51 50 50 49 49 49 50 51 53 56 58 60 62 63 65 67 67 63 60 58 56 56 56 57 58 59 59 59 59 60 62 63 64 63 62 62 61 61 61 60 60 60 60 60 61 62 63 64 65 67 68 69 70 70 71 72 74 75 76 78 79 81 82 84 85 86 86 86 87 88 87 87 87 87 87 86 85
75 71 68 65 62 59 56 54 53 52 51 50 50 50 51 53 56 59 61 63 65 66 67 67 69 71 70 66 60 57 56 58 59 61 63 63 62 62 63 64 64 64 63 62 62 61 61 60 60 60 60 60 61 62 63 64 65 66 67 67 68 68 69 70 71 72 73 75 76 78 80 81 83 84 86 86 87 87 88 87 87 87 86 85 86 86
74 70 68 65 62 59 57 56 54 53 52 52 52 53 56 59 61 64 66 67 69 71 73 74 74 74 72 67 62 59 59 61 64 67 68 67 66 65 65 65 65 64 63 62 61 60 60 59 59 60 60 61 62 62 63 63 64 65 65 66 67 68 69 70 71 73 74 76 77 79 82 84 85 86 87 88 90 91 91 90 89 88 87 88 88 88
74 70 67 64 61 59 58 56 55 54 53 53 55 58 62 65 68 69 70 71 73 76 80 82 80 75 69 65 63 62 63 66 69 72 72 70 68 66 65 64 64 63 62 60 60 59 59 59 59 59 59 60 60 61 61 62 63 64 65 66 67 68 69 71 73 75 77 78 80 81 83 85 86 87 88 89 90 91 92 92 91 91 90 90 89 88
70 67 63 60 59 58 57 56 55 55 55 58 62 66 70 71 72 73 73 75 78 82 84 82 78 72 68 67 66 67 68 71 74 75 74 71 68 66 64 64 63 62 61 60 60 59 58 58 58 58 58 58 59 60 61 62 63 64 65 66 67 68 70 72 73 75 77 78 80 81 84 85 87 87 88 89 90 92 93 92 93 93 94 93 92 91
64 62 60 59 59 59 59 58 59 60 61 65 69 74 76 77 79 80 82 86 87 86 82 77 73 71 70 71 71 71 72 74 76 77 76 75 71 67 64 63 62 61 61 60 59 58 57 57 57 57 57 58 59 60 61 62 63 64 65 66 67 68 70 71 73 74 75 76 78 79 81 85 87 88 88 91 93 95 95 95 95 95 95 95 95 94
63 62 62 61 61 62 62 64 66 68 70 75 78 82 86 89 91 93 95 93 89 84 79 76 74 73 73 73 73 72 71 71 71 72 74 75 71 65 62 61 61 60 60 59 58 57 57 57 57 57 58 58 59 60 61 62 63 64 65 66 67 69 70 71 72 73 73 75 76 78 80 84 86 88 90 92 93 94 95 95 95 95 95 95 94 93
66 66 66 66 66 68 69 72 74 77 81 86 90 94 96 96 96 95 93 88 84 80 78 77 75 74 73 72 70 68 66 65 65 66 68 69 67 63 61 60 60 60 59 58 58 58 58 58 58 58 58 58 59 60 61 62 63 65 66 67 68 68 70 70 71 71 72 73 75 76 78 80 83 86 87 88 90 91 93 93 93 94 94 95 95 94
69 70 70 70 71 73 76 79 84 88 92 94 96 96 95 93 91 87 83 81 79 78 78 77 75 73 69 67 65 63 63 62 62 64 66 67 66 64 61 61 60 60 60 60 60 60 60 59 59 58 58 59 60 61 62 63 64 65 66 67 67 67 68 68 69 70 71 72 73 75 77 79 81 82 84 85 86 88 89 89 91 92 93 95 95 95
70 71 72 73 75 79 83 88 93 96 96 95 93 91 88 87 86 85 82 80 79 79 78 76 74 70 67 66 65 64 63 62 62 63 64 65 65 64 62 62 62 62 62 62 61 61 60 60 60 60 60 60 61 62 63 63 64 64 65 65 65 66 67 67 68 70 71 73 74 75 76 77 78 79 80 81 83 84 85 87 88 89 90 92 94 95
70 72 74 77 82 86 91 93 93 91 87 84 81 80 81 84 86 86 83 79 78 78 77 76 74 72 68 67 66 64 63 62 62 62 63 64 65 65 64 63 63 64 64 62 61 61 61 62 62 62 62 62 61 61 61 61 62 62 63 63 64 66 67 68 69 71 72 73 73 74 75 76 76 77 78 79 80 81 82 84 85 87 88 90 93 95
75 78 82 86 89 91 91 88 84 80 77 77 78 79 82 85 87 85 80 77 77 78 78 77 76 74 72 68 66 65 64 63 63 62 62 64 66 67 66 65 65 65 65 64 64 64 64 63 63 62 61 60 60 59 59 60 60 61 63 64 66 67 68 68 69 70 71 71 72 73 73 74 75 76 76 77 78 79 80 81 83 85 87 90 93 97
84 88 91 90 87 84 80 76 74 74 75 77 78 80 82 84 86 85 81 80 80 80 79 77 76 74 73 70 68 66 65 63 63 62 61 66 69 70 68 67 66 65 65 66 66 65 63 62 60 59 59 58 58 59 60 61 62 63 64 65 66 66 67 67 68 68 69 70 71 72 72 73 74 75 76 77 78 79 79 81 82 84 87 91 94 97
89 89 86 81 77 74 73 73 73 74 76 77 78 78 79 81 82 82 81 81 82 81 80 77 76 75 74 73 71 68 64 61 60 60 62 69 72 72 69 68 67 67 68 70 69 67 62 59 58 57 58 59 60 61 62 63 63 64 64 64 65 65 66 66 67 68 68 69 70 71 72 73 74 75 76 76 77 78 79 81 83 85 88 92 96 98
86 81 76 74 72 72 72 73 74 74 75 75 76 76 76 76 77 78 78 80 81 82 81 79 77 76 75 76 74 70 64 61 61 62 65 72 74 74 72 72 71 71 71 73 73 70 64 60 59 58 60 61 62 63 63 63 63 64 64 64 65 65 66 66 66 67 68 68 69 70 71 72 73 74 75 76 77 78 79 80 83 86 89 94 97 98
79 75 73 72 72 73 73 73 73 73 73 73 73 73 73 73 74 75 76 78 80 82 82 81 80 78 77 78 76 72 68 66 66 67 68 74 77 77 75 76 75 73 72 73 74 74 70 67 63 62 62 63 63 63 63 63 64 64 64 64 65 65 65 65 66 66 67 68 68 69 71 72 73 74 75 76 76 77 78 80 83 86 90 95 98 98
75 73 73 73 73 73 73 73 73 72 73 72 71 71 71 71 72 73 75 77 79 81 83 83 82 81 80 78 76 74 70 69 68 69 70 77 80 80 77 76 76 74 73 72 73 73 73 71 68 65 64 64 63 63 63 64 64 64 64 65 65 65 65 65 66 67 67 68 69 70 71 73 74 75 76 76 77 78 79 80 82 85 89 94 97 98
74 74 74 74 74 73 73 72 72 71 71 71 70 70 70 70 71 72 73 75 77 79 82 83 84 84 82 79 76 74 70 70 69 70 72 79 82 82 79 78 76 75 74 73 72 72 71 70 68 66 65 64 63 63 64 64 64 64 63 64 64 65 65 66 67 68 69 70 71 72 73 74 75 76 76 77 78 79 80 80 81 83 86 91 94 97
74 74 74 74 73 72 72 71 71 71 70 70 70 69 69 69 70 71 72 74 76 78 80 82 84 85 85 84 81 77 73 72 73 74 76 82 86 86 83 79 77 76 77 77 76 74 72 70 68 67 67 66 65 64 63 63 62 62 63 64 65 66 67 68 69 70 71 71 72 73 74 75 76 76 77 77 78 79 79 80 81 82 84 86 90 93
74 74 73 73 72 72 71 70 70 70 70 70 70 70 70 70 70 71 72 73 75 77 79 81 83 85 86 86 86 84 80 79 78 79 81 86 89 90 87 82 78 78 80 80 79 78 76 73 71 69 68 68 67 64 62 62 62 63 64 65 66 67 68 69 70 71 72 73 74 74 75 76 76 77 78 78 78 78 79 79 80 82 84 85 87 90
75 74 73 72 71 71 71 70 70 70 70 70 70 70 71 71 71 72 73 74 76 78 79 82 83 84 86 87 87 86 85 84 84 84 85 88 91 93 91 86 82 82 84 84 83 81 79 78 75 72 68 67 66 64 62 63 64 65 66 67 68 69 70 71 71 72 73 74 75 75 76 76 77 77 78 79 79 79 80 81 82 83 85 86 87 88
74 73 72 71 71 71 71 71 71 71 71 71 71 71 72 72 73 74 75 76 78 79 80 82 83 83 83 84 85 85 85 85 85 85 86 88 91 93 94 91 89 88 88 88 88 86 84 82 78 75 71 68 66 65 65 66 67 67 68 68 69 70 71 71 72 73 74 74 75 75 76 76 77 78 80 80 81 82 82 82 83 84 86 86 87 89
73 73 72 72 72 72 72 73 72 72 72 72 72 73 73 74 75 75 76 77 77 78 79 80 81 82 82 82 82 83 84 85 85 85 85 88 90 92 93 93 92 90 89 90 91 90 88 85 82 78 76 73 71 69 68 69 69 70 70 70 71 71 71 71 72 73 74 75 75 76 77 78 79 80 81 82 82 82 82 83 84 85 87 90 91 93
73 73 73 73 73 73 73 73 73 72 72 73 73 74 75 76 76 76 77 77 77 77 77 78 80 81 81 82 82 83 83 83 83 83 83 84 86 89 93 93 93 93 92 92 93 92 90 87 84 81 78 77 75 74 73 73 73 73 73 73 73 71 70 71 73 75 76 76 77 78 78 79 79 80 81 81 82 82 83 86 88 90 92 95 97 97
75 75 75 74 74 74 73 73 73 73 73 74 75 75 76 77 78 77 78 77 77 77 77 78 79 80 80 81 81 81 81 80 80 81 81 80 80 82 87 91 93 93 94 94 93 91 90 87 85 83 81 80 78 77 76 75 74 74 74 75 74 73 73 74 75 76 77 76 76 76 77 77 78 79 81 82 83 85 87 91 94 95 96 97 97 97
76 76 75 74 74 74 73 74 75 75 75 75 76 76 76 77 77 78 78 78 78 78 78 78 79 80 80 79 79 79 79 78 78 78 78 77 77 79 81 86 90 92 94 94 93 91 89 88 87 86 84 83 82 80 78 76 75 74 75 75 75 76 76 75 74 74 75 75 75 76 77 78 80 82 83 84 86 89 92 95 97 97 98 98 98 98
77 76 75 75 75 76 76 77 77 77 76 75 75 75 75 76 77 78 79 80 79 79 79 79 80 81 82 81 79 77 76 76 75 75 75 75 75 76 77 80 83 87 91 93 93 90 88 87 87 87 85 85 85 84 81 79 77 76 75 76 77 78 77 74 72 73 74 76 77 78 79 81 83 84 86 88 91 93 94 95 96 96 96 97 98 98
78 78 77 77 77 77 77 77 76 76 75 75 75 75 75 76 77 78 79 80 81 81 81 82 82 83 84 82 78 76 75 75 75 75 75 75 75 75 76 78 80 83 87 91 92 92 89 87 85 84 84 85 86 86 84 81 79 77 76 77 78 78 78 76 76 77 78 78 79 79 80 82 84 85 87 89 90 91 90 90 90 90 90 90 93 95
78 78 77 77 76 76 77 77 76 76 76 76 76 76 76 76 77 78 79 81 82 82 82 82 83 83 81 78 76 75 75 74 74 74 74 74 74 74 75 76 78 80 84 87 90 92 92 89 86 85 84 85 86 87 85 83 81 79 78 78 78 78 79 78 77 77 77 77 77 77 79 82 84 85 87 86 85 85 85 85 85 85 84 85 87 90
78 78 78 78 78 78 78 77 77 77 77 76 76 76 76 76 77 78 79 80 81 82 82 82 83 83 81 78 77 76 76 75 74 74 74 74 74 74 74 75 77 78 81 83 86 88 91 92 90 89 87 87 86 84 82 82 81 80 79 78 78 77 76 76 76 76 76 77 78 79 80 83 86 88 88 85 82 81 81 82 82 82 81 81 82 85
79 79 79 79 79 79 78 78 78 77 77 76 76 75 75 76 77 78 79 80 81 82 82 82 82 82 81 79 78 77 77 76 75 74 73 74 74 74 75 75 76 77 79 81 83 85 88 91 92 93 94 92 88 84 81 80 80 79 79 78 77 77 77 77 77 78 79 80 81 81 82 85 86 86 85 82 80 79 79 79 79 78 77 77 79 83
80 80 80 80 79 79 78 78 78 78 77 77 76 75 75 75 76 77 79 79 80 81 81 81 81 81 80 79 78 77 77 77 76 76 75 75 75 75 76 77 78 79 80 81 82 84 85 86 88 90 93 92 90 86 83 81 80 79 78 78 78 79 79 79 78 79 80 80 81 82 84 87 87 87 85 84 82 80 77 76 76 75 74 75 77 81
81 81 80 80 80 80 79 78 78 78 78 77 76 76 75 76 76 78 79 80 80 81 82 82 82 81 80 78 77 77 76 76 76 76 76 76 76 76 77 78 79 80 81 81 81 81 81 80 80 81 83 85 86 85 84 82 80 79 78 77 77 78 78 76 75 74 75 76 79 81 84 86 89 90 92 90 86 80 76 75 74 73 73 73 76 79
81 81 80 80 80 80 80 79 78 78 78 78 78 78 78 77 77 77 78 79 80 81 81 82 82 81 80 79 78 77 77 77 77 77 76 76 76 77 78 79 80 81 82 81 79 77 75 74 72 70 70 73 76 78 80 79 77 76 73 72 71 70 70 70 70 71 72 76 79 83 85 87 89 90 92 91 87 82 77 74 73 72 72 74 76 80
81 81 81 81 81 81 80 80 79 79 79 79 79 80 80 79 79 78 78 78 79 79 80 80 81 81 80 79 79 78 78 78 78 78 77 76 77 78 79 81 82 82 83 82 79 77 74 71 68 65 63 63 65 68 71 72 72 72 71 69 69 69 70 70 72 73 76 79 82 85 87 88 88 88 89 88 86 82 77 75 73 72 73 75 78 82
Wind_Speed
20 20 20 20 21 22 22 21 22 23 25 24 24 24 25 25 25 25 26 26 26 26 26 26 27 27 28 29 30 31 32 32 33 33 33 33 33 33 34 34 34 34 35 35 35 36 36 36 36 36 37 37 37 37 37 37 37 37 37 37 37 37 37 37 37 37 37 37 37 37 37 37 37 37 37 37 37 37 36 36 36 36 36 36 37 37
20 21 20 20 21 22 23 22 22 22 24 25 25 25 25 26 27 26 26 25 25 25 25 26 26 27 28 29 30 31 32 32 32 32 32 32 33 33 33 34 34 34 35 35 36 36 36 36 37 37 37 37 37 37 37 37 37 37 38 38 38 38 38 38 38 38 38 38 38 38 38 38 38 37 37 37 37 37 37 37 37 37 37 37 37 38
21 21 21 21 21 22 23 23 23 22 24 25 26 26 26 27 27 26 25 24 24 24 24 25 27 28 29 30 30 30 30 30 30 31 31 32 32 33 33 34 34 35 35 36 36 37 37 37 37 37 37 37 37 37 37 37 37 38 38 38 38 38 38 38 38 38 38 38 38 38 38 38 38 38 38 38 38 38 38 38 38 38 38 38 38 38
21 21 22 22 21 22 22 23 24 24 24 25 26 26 26 26 25 24 23 23 23 24 25 26 27 28 29 29 29 29 29 29 30 31 31 32 33 33 33 34 35 35 36 36 36 37 37 37 37 37 37 37 37 37 37 37 37 38 38 38 38 38 38 38 38 38 38 39 39 39 39 39 38 38 38 38 38 38 39 39 38 38 38 38 38 38
21 21 22 22 22 22 23 23 24 25 25 25 25 25 24 23 22 22 22 22 23 25 26 27 27 28 28 28 28 28 28 29 30 31 32 32 33 33 34 34 35 35 36 36 36 36 36 36 36 36 36 37 37 37 37 37 37 38 38 38 38 38 38 38 38 38 38 38 38 38 38 38 38 38 38 38 38 38 38 38 38 38 38 38 38 38
21 21 22 22 22 23 24 24 24 25 25 24 23 22 21 21 21 21 22 24 25 26 27 27 27 27 27 27 27 28 28 29 30 31 32 32 33 33 34 34 34 35 35 36 36 36 36 36 36 36 36 37 37 37 37 37 37 38 38 38 38 38 38 38 38 38 38 38 38 38 38 38 38 38 38 38 38 38 38 38 38 38 38 38 39 39
23 22 22 23 23 24 24 24 24 24 23 23 21 19 19 19 21 22 24 25 26 27 27 27 27 26 26 26 26 27 28 29 30 31 32 32 33 33 33 34 34 35 35 36 36 36 36 36 36 36 36 37 37 37 37 37 37 37 37 37 37 37 37 37 37 37 37 37 37 37 37 37 37 37 37 37 37 38 38 38 38 38 38 39 39 39
24 24 23 22 23 24 25 24 23 21 21 20 19 19 20 21 23 24 26 27 27 27 27 26 26 25 25 25 26 26 27 29 30 31 31 32 32 32 33 33 34 35 35 35 36 36 35 35 35 36 36 36 36 36 37 37 37 37 37 37 37 37 37 37 37 37 37 37 37 37 36 36 36 36 36 36 36 37 37 37 37 38 38 38 38 39
23 23 23 22 22 23 24 24 21 18 17 17 18 20 22 24 26 27 26 26 26 26 25 25 25 25 25 25 26 27 28 29 30 31 31 32 32 32 33 33 34 34 34 34 34 34 34 34 35 35 35 35 36 36 36 36 36 36 36 36 36 36 36 36 36 36 36 36 36 36 36 35 35 35 35 35 35 35 36 36 36 36 37 37 37 38
22 22 23 23 23 22 21 21 19 17 16 17 19 21 23 25 27 28 27 26 25 25 24 24 25 25 26 26 26 27 28 30 31 31 32 32 32 32 33 33 33 33 33 33 33 33 33 33 34 34 34 34 35 35 35 35 35 35 35 36 36 36 36 36 36 36 35 35 35 35 35 35 35 34 34 34 35 35 35 35 35 36 36 36 37 37
21 21 22 23 22 20 18 17 16 17 18 20 23 24 25 25 26 26 26 25 25 25 24 24 24 25 26 27 27 28 29 30 31 31 31 30 30 30 31 31 31 31 31 32 32 32 32 32 32 33 33 34 34 34 34 34 34 34 35 35 35 35 34 34 34 34 34 34 34 34 34 34 34 34 34 34 34 35 35 35 35 36 36 36 37 37
20 20 21 20 18 17 16 17 18 20 22 24 25 25 25 24 24 24 24 24 24 25 24 24 25 25 26 27 28 28 29 29 30 30 30 29 28 28 28 28 28 29 29 30 30 30 30 31 31 32 33 33 33 33 33 33 33 33 33 33 33 33 33 33 33 33 33 34 34 34 34 34 34 34 34 35 35 35 35 36 36 36 36 37 37 37
21 20 18 17 16 16 17 20 22 24 24 24 23 23 23 24 24 24 24 24 24 24 24 25 26 27 27 27 27 27 28 28 29 29 29 28 27 27 26 27 27 28 28 29 29 29 29 30 31 32 32 32 32 32 32 32 32 32 32 32 32 32 32 32 33 33 34 34 34 34 35 35 35 35 35 35 36 36 36 36 36 36 37 37 38 38
20 19 17 16 16 18 20 22 24 24 24 23 23 23 24 24 24 24 23 23 24 24 25 26 27 28 28 27 26 26 26 26 27 28 28 28 27 26 26 27 28 28 29 29 30 30 30 30 31 31 31 31 31 31 31 30 30 31 31 32 32 32 33 33 34 34 34 35 35 35 35 35 35 35 35 36 36 36 37 36 36 36 37 37 38 38
18 17 16 16 17 20 22 23 24 24 24 24 24 24 25 24 23 22 22 22 23 24 25 26 27 28 28 26 24 24 23 24 25 27 28 28 27 27 26 27 28 29 30 30 30 30 30 30 30 30 30 30 30 30 30 30 31 31 32 33 33 34 34 34 35 35 35 35 35 36 36 36 36 36 36 36 36 37 37 37 37 37 37 38 38 38
18 17 16 17 19 22 23 24 24 24 24 24 24 23 23 22 22 21 21 22 23 24 23 23 23 24 25 25 23 21 22 23 25 26 27 28 29 28 27 27 29 30 30 30 30 30 30 30 29 30 30 30 30 30 30 31 32 33 33 34 34 35 35 35 35 36 36 36 36 36 36 36 36 36 37 37 37 37 37 37 38 38 38 38 38 39
19 19 18 19 20 22 24 24 24 23 23 23 23 22 21 21 21 21 21 22 22 22 21 20 13 10 15 22 24 22 21 23 25 26 28 29 30 30 28 27 28 30 31 30 30 29 29 29 29 29 29 29 30 31 32 32 33 34 35 35 35 35 35 35 35 35 36 36 36 36 36 37 37 37 37 37 37 37 37 38 38 38 39 39 39 39
19 20 20 20 21 22 23 23 23 23 22 22 22 22 22 22 22 22 23 23 22 21 21 20 15 8 7 14 21 24 24 24 25 27 28 29 31 31 29 28 28 29 30 30 30 29 29 29 29 29 30 30 31 32 33 34 34 35 35 35 35 35 35 35 36 36 36 37 37 37 37 37 37 37 37 38 38 38 38 38 38 38 39 39 39 39
21 22 21 21 22 22 22 22 22 22 21 21 22 22 22 23 23 23 23 23 23 21 20 19 18 16 15 18 24 28 27 26 26 26 27 29 31 32 30 28 27 28 29 30 29 29 28 29 30 30 31 32 32 33 33 34 34 34 34 35 35 35 36 36 37 37 37 37 37 37 37 37 37 37 38 38 38 38 38 38 38 39 39 39 39 39
23 23 22 22 22 23 22 22 22 22 22 23 23 23 23 24 24 24 24 24 22 21 19 18 17 18 21 24 29 31 30 27 26 25 26 28 30 31 29 27 26 27 29 29 29 28 28 29 30 31 31 31 32 32 33 33 34 34 35 36 36 36 37 37 37 37 37 37 37 37 37 37 37 37 37 37 37 37 37 38 38 38 38 39 39 39
23 23 23 23 23 23 23 23 24 24 24 24 24 23 24 24 25 24 24 23 21 20 19 18 19 22 25 28 30 32 31 27 25 24 25 26 28 29 28 26 26 27 28 29 29 28 28 29 29 30 30 31 32 33 34 34 35 36 36 36 36 36 36 36 36 36 36 36 36 36 36 36 36 36 37 37 37 37 37 37 38 38 38 38 39 39
24 24 25 25 24 24 24 25 25 25 25 25 24 24 24 24 24 23 22 20 19 19 20 21 25 28 30 31 32 32 30 27 24 23 22 21 24 28 28 26 25 26 27 28 29 28 28 28 29 30 30 31 33 34 35 35 36 36 36 36 36 36 36 36 36 36 36 36 36 36 36 35 36 36 37 37 36 36 36 37 37 37 38 38 38 39
25 25 25 25 24 24 25 25 26 25 25 24 24 25 24 24 23 21 19 19 21 23 25 27 29 31 30 30 30 30 28 26 24 23 20 14 17 25 27 26 25 25 27 28 28 28 28 29 29 30 31 32 33 34 34 35 35 35 36 36 35 35 35 35 35 35 35 35 35 35 35 35 36 36 37 37 37 37 37 37 37 37 37 37 38 38
24 24 24 24 24 24 25 25 26 26 25 25 26 26 26 25 24 23 24 25 26 27 28 28 29 28 28 28 27 27 26 24 23 21 20 17 19 24 27 26 25 26 27 28 28 28 28 29 30 31 31 32 33 33 34 34 35 35 35 35 34 34 34 34 34 34 34 34 35 35 35 35 36 36 37 37 37 37 37 37 37 37 37 37 37 37
23 23 24 24 25 26 27 27 28 29 29 30 29 28 27 26 26 26 28 28 27 26 25 24 23 23 24 25 25 25 25 23 22 20 19 18 21 25 27 25 24 25 27 28 28 27 28 30 31 31 31 32 32 33 33 33 34 33 33 33 33 33 33 33 33 34 34 34 35 35 36 36 36 36 36 36 37 37 38 38 38 38 38 38 37 37
24 25 26 28 29 31 32 33 33 33 32 31 30 28 27 26 26 26 26 25 23 21 20 19 17 18 22 22 22 23 24 23 22 20 20 19 20 23 25 25 24 24 26 28 28 28 28 30 31 32 31 32 32 32 31 31 31 31 31 31 32 32 33 33 34 34 35 35 35 35 36 36 36 36 36 36 36 36 37 37 38 38 39 39 39 38
25 27 29 31 31 32 32 31 31 30 30 29 28 27 26 25 24 23 22 21 20 18 17 13 11 14 18 19 20 22 24 24 22 21 21 21 20 21 23 23 23 23 25 27 28 28 28 29 31 31 31 31 30 29 29 29 29 29 30 31 32 33 33 33 34 34 34 34 34 34 34 35 35 35 35 36 36 36 36 37 37 37 38 39 38 37
27 28 29 29 28 28 27 27 27 28 28 28 27 26 25 23 21 20 20 20 19 18 17 13 10 9 10 14 19 24 26 25 23 22 21 20 18 18 21 22 23 23 25 27 29 29 28 28 28 29 29 28 28 27 27 28 29 30 31 32 32 32 33 33 33 32 33 33 33 33 33 34 34 35 35 35 35 36 36 36 37 37 37 37 36 35
25 25 25 25 24 24 24 25 26 26 26 26 25 23 22 20 19 19 20 20 19 18 18 17 15 13 12 17 21 25 26 26 24 22 19 17 16 17 21 22 23 23 24 25 27 29 28 26 25 25 26 26 27 27 27 28 29 29 30 31 31 31 31 31 31 31 31 31 32 32 33 33 34 34 34 35 35 35 36 36 36 36 36 36 34 33
23 23 22 22 23 23 24 24 25 24 24 23 22 21 20 19 19 19 20 20 19 18 18 18 18 17 17 17 16 16 20 23 22 19 17 15 15 18 22 22 23 24 23 20 17 17 21 24 24 23 24 25 26 27 28 29 29 29 29 30 30 30 30 29 29 30 30 31 31 32 32 33 33 33 34 34 34 35 35 36 36 35 35 34 33 32
23 22 22 23 23 23 23 23 22 22 22 21 21 20 19 18 18 19 19 19 18 18 19 19 19 19 18 11 7 6 8 21 24 20 18 16 17 19 21 22 23 24 22 17 9 5 11 16 22 26 24 26 27 28 29 29 28 28 28 29 29 29 29 29 29 29 30 30 31 31 31 32 32 33 33 34 34 34 35 35 35 34 35 33 31 30
23 23 23 23 23 22 22 21 21 21 21 20 19 19 18 18 18 18 18 18 18 18 19 20 20 20 19 14 11 9 10 23 27 24 21 19 19 21 22 21 22 23 23 21 16 10 8 6 17 28 28 28 28 28 29 28 27 27 28 28 29 29 29 29 29 29 29 30 30 31 31 32 32 32 33 33 34 34 34 34 34 34 34 32 30 29
23 23 23 22 22 21 21 21 20 20 20 19 19 18 18 18 18 18 18 18 19 19 19 19 20 20 20 20 20 20 23 28 28 26 23 20 19 20 22 22 22 23 24 23 23 19 13 10 17 27 29 29 29 28 28 28 27 27 27 28 28 29 29 28 28 28 29 29 30 30 31 31 31 32 32 32 33 33 33 33 33 33 32 32 30 29
22 22 21 21 21 21 21 20 20 20 19 19 19 18 18 18 18 18 19 19 19 20 20 20 20 20 21 21 21 24 28 29 28 25 23 21 20 21 23 23 23 23 23 22 22 22 20 21 22 24 25 29 30 29 28 27 27 27 27 27 27 28 28 28 28 28 29 29 29 29 30 30 30 30 30 31 31 31 31 32 32 32 33 33 33 32
21 21 21 20 20 20 20 20 20 19 19 19 19 19 18 19 19 19 19 19 20 20 21 21 21 21 21 21 21 23 27 30 29 27 24 22 22 22 23 23 23 23 21 20 20 19 18 21 24 23 22 25 28 30 29 28 27 27 27 27 27 27 28 28 28 28 29 29 29 29 29 29 29 29 29 29 30 30 32 33 34 34 35 36 36 35
20 20 20 20 20 19 20 20 19 19 19 19 19 19 19 19 19 20 20 21 22 22 22 23 24 24 25 24 24 25 29 32 32 30 27 25 24 23 23 24 25 24 22 21 20 17 15 18 22 24 22 18 19 24 29 29 28 27 27 27 27 27 28 28 28 28 28 28 28 28 28 28 29 29 30 30 31 33 34 35 36 36 36 36 36 36
19 19 20 20 19 19 19 19 19 19 19 19 19 19 19 20 20 21 22 23 24 24 25 25 26 26 27 28 29 30 32 34 34 33 32 30 28 26 24 26 27 27 24 22 21 20 18 15 15 18 19 15 13 18 26 29 29 28 28 28 28 28 28 28 28 27 27 28 28 28 29 29 29 30 31 31 32 33 33 34 34 34 34 34 35 35
19 19 19 19 19 19 19 19 19 19 19 20 20 20 21 21 22 23 23 24 25 26 26 26 26 27 28 29 31 33 35 36 37 37 37 35 33 30 27 26 27 27 25 24 23 22 20 13 10 11 11 15 19 23 27 28 28 28 29 30 30 29 29 29 28 27 27 28 29 30 30 30 30 30 30 31 30 30 30 31 32 32 33 34 34 35
18 19 19 19 19 19 19 19 19 20 20 21 21 21 22 23 24 24 24 24 25 25 25 25 25 27 28 30 32 33 34 35 36 37 37 36 34 31 29 27 27 28 27 26 24 23 21 16 13 10 9 12 18 24 28 27 27 28 30 31 31 30 29 28 27 27 27 28 29 30 30 30 29 29 28 28 28 28 29 30 31 32 32 33 33 34
19 19 19 20 20 20 20 20 20 21 21 21 22 23 22 22 23 23 24 23 23 24 24 24 25 26 27 28 29 29 30 31 33 33 34 34 34 32 30 28 28 27 27 26 24 23 23 21 20 20 19 15 16 21 25 26 27 28 28 26 25 27 29 28 27 28 28 28 28 28 29 28 28 27 27 28 28 29 30 30 31 32 32 31 30 30
19 19 20 20 20 20 20 21 21 22 22 22 23 22 22 21 22 22 23 23 23 23 23 23 24 25 26 27 27 28 28 29 30 30 31 32 33 33 31 30 29 27 27 25 25 24 24 23 23 23 23 23 23 24 25 26 28 29 28 24 25 28 30 30 29 28 28 28 28 28 28 28 28 28 28 29 29 30 31 30 31 32 33 33 31 29
19 19 20 20 20 21 21 21 22 22 22 22 21 21 21 20 21 21 22 23 24 24 23 23 23 24 26 27 28 28 28 28 28 28 29 29 30 30 30 30 29 27 26 25 25 25 25 25 24 23 23 24 23 22 22 26 29 29 28 27 28 29 30 29 28 26 26 26 27 27 27 27 28 28 29 29 30 31 31 31 32 32 32 32 32 31
19 19 20 21 21 21 22 22 22 22 22 21 21 21 21 21 21 21 22 23 24 24 24 23 23 23 24 26 28 29 28 28 27 26 26 26 27 27 28 29 29 28 27 25 24 25 26 26 25 24 25 25 23 21 21 24 27 29 29 28 27 24 20 24 27 28 27 27 27 28 27 27 27 28 29 29 29 30 31 30 31 31 32 32 32 31
19 19 20 20 21 21 22 22 22 22 22 22 22 22 22 21 21 22 22 22 23 23 23 23 22 22 22 23 26 27 28 27 27 26 25 25 24 25 26 27 27 28 28 25 24 24 25 25 25 26 25 25 23 23 23 24 26 27 28 29 27 24 20 23 27 29 29 28 27 26 26 26 27 29 30 30 29 29 29 29 29 30 31 31 30 29
19 19 20 20 21 21 21 21 21 22 21 22 22 22 22 22 21 21 22 22 22 23 22 22 21 20 21 22 23 25 26 27 27 27 26 25 24 23 23 24 25 26 26 26 25 24 23 23 25 26 27 26 24 23 24 24 25 26 27 28 28 27 27 29 29 28 27 27 27 28 28 28 29 30 30 30 29 28 27 27 28 29 30 30 30 29
19 20 20 20 20 21 21 21 22 22 22 22 22 22 22 22 21 21 21 22 22 22 23 22 21 19 19 20 22 23 23 25 27 27 27 26 25 24 24 24 24 25 25 26 26 26 26 25 26 27 27 25 25 26 26 26 25 25 26 27 27 27 28 28 28 27 27 27 28 29 29 29 29 28 27 28 29 29 29 28 27 28 29 30 29 29
19 20 20 20 21 21 21 21 21 21 22 22 22 22 22 21 21 21 21 21 21 22 22 22 21 20 20 20 21 21 21 22 25 27 27 27 27 26 25 25 24 24 25 25 26 27 28 28 28 27 24 22 21 23 26 27 26 25 25 26 26 26 25 26 26 26 26 26 27 28 30 29 28 27 27 28 29 29 29 28 28 28 29 29 29 28
20 20 20 21 21 21 21 21 21 21 21 22 22 23 23 22 22 21 22 22 22 22 22 21 20 20 20 21 21 21 21 22 23 25 26 26 26 26 25 25 24 24 25 25 26 26 27 28 28 28 26 23 21 20 23 26 26 25 25 25 25 24 24 25 26 26 25 26 27 28 29 28 26 26 26 26 27 27 28 29 29 28 29 29 28 27
19 20 20 20 20 21 21 21 21 21 21 22 23 24 24 24 23 22 22 22 22 21 20 20 19 19 20 21 22 22 23 23 24 24 25 25 25 25 25 25 25 25 26 26 26 26 26 26 26 26 25 25 24 23 23 25 25 25 25 24 23 23 23 25 27 27 26 27 28 29 29 28 27 25 24 22 22 24 27 29 29 29 29 28 28 28
20 20 20 20 20 20 21 21 21 21 21 22 23 23 24 24 24 23 22 21 21 20 20 20 19 19 19 21 22 23 23 23 23 23 24 24 24 24 24 24 25 25 25 25 24 24 23 22 22 21 21 21 22 22 22 23 24 24 24 24 23 24 24 25 27 28 28 28 28 28 29 28 27 25 23 20 20 22 25 27 28 29 28 28 28 28
20 20 20 20 20 20 20 21 21 21 22 22 23 23 23 24 24 23 22 21 21 20 20 20 20 20 20 21 22 22 23 22 22 23 24 24 24 23 23 24 24 23 21 19 18 17 15 13 14 16 19 19 18 18 19 21 22 22 22 23 24 24 24 25 27 28 29 28 28 27 27 26 25 23 21 19 18 17 18 21 25 28 29 28 29 29
Wind_Direction
299 302 304 307 307 306 304 304 305 304 303 303 303 303 303 302 301 300 299 299 298 297 297 296 296 295 295 295 295 295 295 294 294 293 293 293 293 293 293 293 293 293 293 292 292 292 291 291 290 290 290 290 289 289 289 288 288 287 287 287 286 286 286 285 284 284 283 283 282 282 281 281 280 280 279 279 278 278 277 277 276 276 276 275 275 274
302 303 304 306 306 304 303 303 303 302 302 303 303 302 302 301 300 299 299 298 297 296 296 296 296 296 295 295 295 295 295 294 294 293 293 293 293 294 294 293 293 293 293 292 292 291 291 291 290 290 290 289 289 289 288 288 287 287 286 286 286 285 285 284 284 283 283 282 282 281 281 280 280 279 279 278 278 277 276 276 275 275 275 274 274 273
304 304 304 305 304 303 302 303 303 302 301 301 301 301 300 299 298 298 297 297 296 296 296 297 297 297 296 295 295 295 295 295 294 294 294 294 294 294 294 294 294 294 293 292 292 291 291 290 290 290 289 289 289 288 287 287 286 286 286 285 285 285 284 284 283 283 283 282 282 281 280 280 279 278 278 277 276 276 275 274 273 273 272 272 272 272
303 303 304 305 303 301 300 301 302 302 300 299 299 298 298 297 296 295 296 296 297 297 297 297 297 297 296 296 295 295 295 295 295 295 295 295 295 295 295 295 294 294 293 292 291 291 291 290 290 290 289 289 288 287 287 286 286 286 285 285 285 285 284 284 284 283 283 282 282 281 280 280 279 278 277 276 276 275 274 274 273 273 273 273 273 273
300 301 303 304 303 301 301 301 301 300 299 297 296 296 296 295 295 295 296 296 297 298 298 298 298 297 296 296 296 296 296 296 297 297 297 297 296 296 296 295 294 293 293 292 291 291 290 290 290 289 289 288 288 287 287 286 286 286 286 285 285 285 285 284 284 284 283 283 282 282 281 280 280 279 278 277 277 276 276 275 275 275 275 275 275 274
299 300 302 302 301 300 301 300 299 298 297 296 295 294 294 295 295 296 297 298 298 299 299 299 299 298 297 296 297 297 298 298 298 298 298 297 297 296 296 295 294 293 292 291 291 291 290 290 290 289 289 288 288 287 287 286 286 286 286 286 285 285 285 285 285 285 285 284 283 283 282 281 281 280 279 279 278 278 278 277 277 277 276 276 275 275
300 300 300 300 299 298 298 297 296 296 296 296 296 296 295 295 296 297 298 299 300 300 300 299 299 298 297 297 298 299 300 300 300 299 298 297 297 296 295 294 293 292 292 291 291 291 290 290 289 289 288 288 287 287 287 287 287 286 286 286 286 286 287 287 286 286 286 285 284 284 283 282 281 281 280 279 279 278 278 277 277 276 276 275 274 274
300 299 299 298 298 297 297 295 294 294 295 296 298 299 299 299 299 299 300 301 301 301 301 300 299 299 298 299 300 301 301 301 300 299 298 297 296 295 295 294 293 292 291 291 291 290 290 290 289 289 288 288 288 288 288 287 287 287 287 287 287 287 287 287 287 287 286 286 285 284 284 283 282 281 281 280 279 278 277 277 276 275 275 274 273 273
296 297 297 295 294 295 296 296 295 294 294 295 297 300 302 303 303 303 303 302 302 302 302 301 301 300 300 300 301 302 301 300 299 297 297 296 295 295 294 294 293 292 292 291 291 291 290 290 290 289 289 289 289 288 288 288 288 288 288 288 288 288 287 287 287 287 286 286 286 285 284 284 283 282 281 280 279 278 278 277 276 275 274 274 273 273
291 292 293 294 293 292 293 295 296 296 294 294 296 298 301 304 305 306 305 303 303 302 302 301 301 301 301 302 302 302 301 299 297 296 295 294 294 294 294 294 293 292 292 292 292 292 291 291 291 290 290 290 289 289 289 288 288 288 288 288 288 287 287 287 287 287 287 286 286 286 285 285 284 283 283 281 280 279 278 277 276 276 275 274 273 273
292 292 292 294 294 292 290 290 293 296 298 299 299 300 301 302 304 305 304 304 303 303 302 301 301 301 302 303 303 302 301 299 297 296 295 294 294 294 294 294 294 293 293 293 293 293 292 292 292 291 291 290 290 289 289 289 288 288 288 288 287 287 287 287 287 287 287 287 286 286 286 285 285 284 283 282 281 280 279 277 277 276 275 274 273 272
292 293 293 293 294 295 295 296 299 302 304 304 304 303 303 302 302 301 301 302 303 303 303 302 301 301 301 301 301 301 299 298 297 296 296 296 297 297 297 296 296 295 295 295 294 294 293 293 292 292 291 291 290 290 289 289 288 288 288 288 288 288 288 287 287 287 287 286 286 286 285 285 284 283 283 282 281 280 279 278 277 276 275 274 273 272
291 291 290 290 293 297 302 304 305 305 305 305 304 303 303 303 302 300 299 299 300 302 303 303 302 300 299 299 298 298 296 295 295 295 296 297 298 299 299 298 297 297 296 296 295 294 294 294 293 292 291 291 290 290 289 289 288 288 288 289 289 288 288 288 287 287 287 286 286 286 285 285 284 283 282 282 281 280 279 278 277 277 276 275 274 273
292 293 293 295 299 302 305 305 305 304 303 302 301 300 301 302 302 301 299 298 299 301 302 302 300 299 298 297 296 294 294 294 294 295 296 296 297 299 299 298 297 297 297 296 295 294 294 294 293 292 291 290 290 289 289 289 290 290 290 290 289 289 289 288 288 287 287 287 287 286 286 285 284 284 283 282 281 280 279 279 278 277 276 275 275 274
293 297 299 301 303 303 303 303 302 301 300 300 300 300 300 300 301 300 300 300 301 302 302 300 299 297 297 296 295 294 294 295 296 297 297 297 297 299 299 299 298 297 296 295 294 294 294 293 292 291 291 290 290 290 290 290 291 291 290 290 290 290 289 289 289 288 288 288 287 286 286 285 284 283 283 282 281 280 279 278 277 276 275 275 274 273
298 301 302 302 302 301 300 300 299 299 299 299 300 300 300 300 301 301 300 300 301 301 301 299 298 297 297 296 296 296 297 298 298 298 298 298 298 299 300 299 298 296 295 294 293 293 294 293 292 291 290 290 290 290 291 291 291 291 291 291 291 290 290 289 289 288 287 287 286 286 285 285 284 283 283 282 281 280 279 278 277 276 275 274 273 272
300 301 300 299 298 298 298 298 297 297 298 299 299 299 299 299 300 300 299 299 299 298 297 297 295 295 297 298 298 299 301 302 301 300 299 298 298 298 299 298 296 294 294 293 293 293 293 292 292 291 290 290 290 291 292 292 292 292 291 291 291 290 290 289 289 288 288 287 287 286 286 285 284 284 283 282 281 280 279 278 277 276 275 274 273 272
299 299 298 296 296 296 297 297 296 296 297 298 298 299 298 298 298 297 296 295 295 294 293 293 290 287 292 297 299 301 304 304 303 301 299 297 296 297 298 297 294 292 292 292 292 292 292 292 291 290 290 291 291 292 292 292 292 292 292 291 291 290 290 290 289 289 289 288 288 287 287 286 285 284 283 282 281 280 279 278 277 276 275 274 273 272
296 295 294 294 294 295 295 294 294 295 296 297 298 299 298 297 296 295 293 292 290 288 286 286 287 288 291 294 297 300 303 304 302 300 297 295 295 296 297 296 293 291 291 291 291 292 293 292 291 291 291 291 292 292 293 293 292 292 292 292 291 291 291 290 290 290 289 289 288 287 287 286 286 285 284 283 282 281 280 278 277 276 275 274 273 272
292 292 291 292 293 294 293 292 292 293 294 296 297 296 296 295 294 292 290 288 286 283 282 284 287 292 295 296 297 299 301 302 301 297 294 292 293 295 296 296 294 292 291 291 292 293 294 293 293 292 292 292 293 293 293 293 293 293 292 292 291 291 290 290 290 289 289 288 288 287 287 287 286 286 285 284 283 282 281 279 278 276 275 274 273 272
291 291 290 291 292 292 291 291 291 292 293 294 295 294 292 292 291 290 288 287 286 287 289 292 294 296 298 297 296 297 299 299 297 293 291 290 291 292 295 295 294 292 291 292 293 294 294 294 294 293 294 294 294 294 294 294 293 293 292 292 291 291 291 290 290 290 289 288 288 288 287 287 287 287 286 286 284 283 282 280 279 277 276 274 273 272
290 290 290 290 289 289 289 289 290 291 291 292 291 289 288 288 287 287 288 290 293 297 299 298 297 297 296 294 293 293 295 294 290 287 288 287 288 290 294 295 294 292 291 292 294 296 296 295 294 294 294 294 294 294 294 294 293 293 292 292 291 291 291 291 290 290 289 289 288 288 287 286 286 287 287 287 286 284 283 282 281 279 278 276 275 273
288 288 288 288 288 287 287 288 289 289 288 286 284 283 282 282 284 288 293 299 302 302 300 298 296 295 293 291 290 291 291 290 286 284 284 282 286 290 294 296 295 292 291 293 296 297 298 297 296 295 295 295 294 294 294 293 293 293 292 292 292 291 291 290 290 289 289 288 288 288 287 286 286 287 288 287 287 286 285 284 283 282 280 279 277 276
286 286 286 287 287 286 286 286 286 285 285 283 282 281 283 287 292 296 300 301 301 299 298 297 296 294 292 290 290 290 290 290 289 287 285 283 286 290 294 295 295 293 292 294 296 298 299 297 297 296 296 295 294 294 294 293 293 292 292 292 292 291 290 290 290 290 289 289 289 289 288 287 287 286 286 286 286 286 285 285 284 283 282 280 279 278
286 286 286 286 286 285 284 284 284 285 286 288 290 293 297 300 301 301 299 298 297 296 295 295 294 292 291 292 292 291 292 292 291 289 286 285 286 289 292 294 294 293 293 295 298 299 299 298 297 297 296 295 295 294 293 293 292 292 292 292 292 291 291 291 291 291 290 290 289 289 288 287 286 286 286 285 285 285 285 285 285 284 283 282 281 279
287 287 287 286 286 285 285 285 287 288 291 293 296 300 302 303 302 300 297 295 294 295 295 294 291 290 292 293 292 292 293 294 293 289 287 287 288 289 291 293 293 293 294 297 299 300 300 299 298 298 297 296 294 294 293 293 293 293 294 294 294 293 293 293 292 291 291 290 289 288 287 286 286 285 285 285 285 285 284 284 284 285 285 284 284 282
290 288 288 287 287 287 288 290 291 293 294 295 296 298 299 300 299 297 294 293 294 295 294 292 290 290 292 292 291 292 294 295 294 291 289 288 287 288 290 293 295 295 297 298 300 300 299 298 297 297 296 295 294 294 293 294 295 296 296 295 295 294 294 293 292 291 291 290 289 288 287 286 286 285 285 285 285 285 285 284 284 284 286 287 286 284
290 288 288 288 289 291 293 295 296 296 296 295 296 296 296 296 295 292 289 291 293 293 290 288 287 288 290 291 292 293 294 294 293 292 291 288 285 285 289 295 298 299 300 300 300 299 298 296 295 295 295 295 295 296 296 297 298 298 297 296 295 294 294 293 293 292 291 290 289 289 288 287 286 286 285 285 285 285 285 285 285 285 286 287 287 285
290 290 291 293 295 297 298 298 297 296 296 296 296 296 294 291 288 285 286 289 290 289 286 285 285 286 288 291 293 294 293 291 291 292 294 291 287 287 292 297 300 301 302 303 302 302 299 296 295 295 296 296 297 298 298 299 299 298 298 297 296 295 295 294 294 294 293 292 291 290 289 288 287 287 286 286 286 286 286 286 286 287 288 287 286 284
297 299 300 301 301 301 300 298 297 296 296 295 295 294 292 287 283 281 282 284 284 283 283 284 285 286 288 292 294 294 292 290 292 296 301 299 293 292 296 298 299 300 303 305 305 303 301 300 299 298 298 299 299 299 299 300 300 299 298 298 297 296 296 296 295 295 295 294 292 292 291 290 289 288 287 287 287 287 287 287 287 288 288 287 285 282
304 305 305 304 303 301 300 298 297 296 296 295 294 293 290 286 282 279 279 279 278 278 279 282 284 285 287 290 292 290 290 290 294 299 304 301 294 293 296 297 297 299 301 302 303 303 303 303 303 303 302 301 300 300 299 299 299 299 299 299 298 297 296 297 297 297 296 296 295 294 293 292 291 290 289 288 287 287 287 287 287 287 287 286 283 281
306 305 304 303 302 301 300 298 297 296 296 295 294 293 290 287 284 281 279 277 275 274 276 279 281 283 283 282 280 278 281 287 291 297 300 296 292 291 293 294 295 297 298 297 294 292 299 304 305 304 304 303 301 300 299 299 298 298 298 298 297 296 297 298 299 298 298 297 296 295 294 293 291 290 289 289 288 287 286 287 287 287 287 284 282 280
304 303 302 301 300 300 299 298 297 296 295 295 294 293 291 289 286 283 280 278 275 274 274 276 279 281 281 280 279 278 280 283 288 292 295 293 291 291 293 294 294 295 297 295 292 289 287 289 298 301 303 302 301 300 299 299 298 297 297 296 296 296 297 299 299 299 298 298 297 296 295 293 292 291 290 289 288 287 287 288 288 287 286 285 282 281
302 301 300 300 300 299 298 297 297 296 295 295 294 294 292 291 288 285 283 280 277 276 274 274 275 277 279 281 280 280 281 282 285 290 293 292 291 290 292 293 293 294 295 295 293 291 288 289 293 298 300 301 301 300 299 298 298 297 296 295 295 295 297 298 299 298 298 297 296 295 294 293 292 291 290 289 288 287 287 289 289 288 287 286 285 284
301 300 300 300 300 300 299 299 298 297 296 296 295 295 294 292 290 288 286 283 281 278 276 273 272 272 274 276 278 280 282 283 286 289 291 290 288 288 289 290 291 292 292 292 292 291 290 290 292 294 297 299 300 299 299 298 298 297 296 295 295 294 295 296 297 297 297 296 295 294 293 293 292 291 290 289 288 288 288 290 290 289 289 288 288 287
300 300 300 300 300 300 300 300 300 299 298 298 297 296 295 294 292 290 288 286 285 282 279 276 273 271 270 270 271 273 277 281 285 288 288 285 284 284 285 286 288 289 289 288 288 288 288 290 291 293 294 295 297 299 300 300 300 299 298 297 296 295 295 295 295 295 295 295 294 293 292 292 292 291 290 289 289 289 289 291 291 290 290 290 289 288
299 299 300 301 301 300 300 300 300 300 299 299 298 297 296 295 293 292 290 288 286 284 282 279 276 273 270 269 269 270 273 277 281 284 284 282 281 280 280 282 284 285 284 284 285 286 287 288 290 291 292 291 292 296 299 301 302 301 298 297 297 296 296 295 295 294 293 292 291 291 292 292 291 290 289 288 289 290 289 289 290 291 291 290 290 290
299 299 300 301 301 301 300 300 300 300 299 299 298 297 296 295 294 293 291 289 287 285 284 281 279 277 276 273 271 272 273 275 278 280 281 281 279 278 277 278 280 281 280 279 280 282 284 284 287 288 287 288 289 291 295 298 300 299 298 298 297 296 295 295 295 294 292 292 292 292 292 291 290 289 289 288 289 289 289 290 290 291 292 293 292 291
299 299 299 300 301 301 300 300 300 299 299 298 297 296 295 294 294 293 292 290 289 287 285 283 281 280 280 278 277 276 276 276 278 280 281 281 279 277 276 276 278 279 279 277 277 277 279 279 280 282 283 288 290 292 293 294 295 296 297 298 298 297 296 296 295 294 293 292 292 291 290 290 289 288 287 288 288 289 290 291 291 292 293 293 293 292
300 299 299 300 300 301 300 299 299 299 299 298 297 296 295 294 294 294 293 292 290 289 288 286 284 283 282 282 280 279 279 279 280 281 281 281 280 278 276 275 275 277 277 277 275 275 275 276 277 278 280 283 287 290 291 292 292 293 296 298 298 297 297 297 296 294 293 291 289 288 288 289 289 288 288 289 289 289 289 289 290 291 292 292 291 290
300 300 300 301 302 301 300 300 300 300 299 298 297 296 296 294 295 296 296 295 294 293 293 291 290 289 287 286 285 284 283 283 283 282 282 282 282 280 277 274 274 274 275 276 275 274 274 275 276 277 279 280 283 285 287 288 290 292 294 294 294 294 296 296 295 293 291 290 288 288 288 290 290 291 290 290 289 288 288 287 288 289 291 290 288 287
299 299 300 301 302 302 301 301 300 300 300 298 296 295 294 295 295 296 296 297 297 296 296 295 294 293 293 292 291 290 289 288 287 286 286 286 285 283 280 276 274 273 273 274 274 274 274 275 275 276 277 279 282 284 286 287 289 291 292 292 293 294 296 295 294 293 292 290 290 290 290 290 291 291 291 291 290 289 289 288 288 287 288 288 286 284
297 298 299 300 301 301 301 301 301 301 301 299 297 295 294 295 295 295 295 295 295 295 296 295 294 293 292 293 294 295 295 294 293 292 290 289 288 286 283 281 278 275 273 272 273 275 276 276 275 275 277 279 280 282 285 287 289 291 291 291 292 294 295 296 296 295 294 292 291 291 291 291 291 292 292 292 292 291 291 290 289 287 287 286 285 283
295 296 298 299 301 302 302 302 302 302 301 299 298 296 296 296 295 294 294 293 293 293 294 294 293 292 291 291 293 296 298 298 298 297 295 293 292 291 289 286 284 280 276 271 271 273 277 278 278 278 279 280 280 281 283 285 288 289 289 289 289 288 286 289 292 294 294 292 291 291 291 293 294 295 295 294 294 293 293 292 291 290 289 288 286 284
296 297 299 300 302 302 302 302 302 302 300 299 297 297 298 297 296 295 294 293 292 292 292 293 293 293 292 291 292 295 298 300 301 302 300 300 298 296 294 291 288 284 280 275 272 271 273 276 279 281 283 282 280 279 281 283 286 287 287 288 287 286 284 286 288 290 291 292 293 294 295 296 297 298 298 297 296 296 295 294 293 292 292 291 289 287
299 300 300 301 301 301 301 301 301 301 300 299 298 298 299 299 299 297 295 294 293 292 293 293 292 290 290 291 293 296 298 300 301 303 303 303 302 301 299 295 292 288 284 280 276 273 271 272 275 280 283 283 282 281 280 281 283 285 286 288 288 288 288 288 288 289 290 291 293 295 297 298 299 298 297 298 298 298 298 296 294 293 293 293 292 290
301 301 301 301 301 301 300 301 301 301 300 300 300 300 301 301 301 300 297 295 294 293 294 294 292 288 287 289 292 294 295 297 299 301 303 304 304 304 302 299 296 292 288 284 280 277 274 272 273 275 277 279 281 281 281 281 282 283 285 287 288 289 288 289 289 290 290 292 294 296 299 300 300 299 298 298 299 300 300 298 297 295 295 295 294 293
302 302 302 302 301 301 301 301 301 301 301 301 301 302 303 302 302 300 299 297 296 295 294 293 291 289 288 289 290 291 293 294 296 298 300 302 303 303 303 301 299 296 293 289 285 281 278 276 274 273 271 272 274 277 280 281 282 282 284 286 288 289 289 291 292 293 294 295 295 296 298 299 299 298 298 298 299 300 301 301 300 299 298 298 297 296
303 302 302 302 301 301 301 302 302 302 301 301 302 303 303 303 302 300 298 297 296 294 292 291 290 290 290 291 291 293 294 295 295 297 298 300 302 303 303 303 301 300 298 296 293 290 286 284 280 275 270 267 268 272 276 279 281 283 285 287 289 291 292 294 297 298 299 298 297 297 297 297 295 294 294 294 296 299 301 302 302 302 301 300 299 298
303 302 302 302 301 301 300 301 302 302 301 301 301 302 302 303 302 301 299 297 295 293 291 290 290 290 291 291 293 294 295 295 296 297 298 300 302 303 303 303 303 303 302 300 300 299 298 295 292 287 281 273 269 270 275 280 284 288 290 292 293 295 296 297 298 299 300 299 298 297 297 295 294 293 292 292 294 298 300 302 302 303 303 303 302 301
303 302 302 301 301 300 300 301 301 301 300 300 300 300 300 300 301 300 300 298 297 295 293 292 291 290 291 291 292 294 295 295 295 297 299 301 302 302 302 302 302 302 302 302 303 303 304 303 302 301 298 293 285 279 280 285 290 293 295 295 296 297 297 298 298 299 299 298 297 296 295 295 295 295 295 295 296 298 300 301 302 303 304 305 304 304